• In Deutschland
  • Länderverzeichnis
  • Für 7 Tage
  • Wassertemperatur
  • Satellitenkarten
  • Wetterkarte
  • Widgets
  • user-avatar
    Anmelden

    Stündliche Wetter Frechen

    Heute, 18 Januar, Donnerstag

    Zeit Temperatur Niederschläge Wind Luftdruck Luftfeuchtigkeit
    00:00 +1°C° 0 mm 5 m/S 749 mmHg 82%
    01:00 +1°C° 0,4 mm 5 m/S 748 mmHg 83%
    02:00 +1°C° 0,4 mm 5 m/S 746 mmHg 84%
    03:00 +2°C° 0,4 mm 5 m/S 745 mmHg 85%
    04:00 +3°C° 1,3 mm 6 m/S 743 mmHg 85%
    05:00 +4°C° 1,3 mm 8 m/S 742 mmHg 84%
    06:00 +5°C° 1,3 mm 9 m/S 740 mmHg 83%
    07:00 +6°C° 0,3 mm 10 m/S 739 mmHg 81%
    08:00 +7°C° 0,3 mm 10 m/S 739 mmHg 80%
    09:00 +8°C° 0,3 mm 10 m/S 738 mmHg 78%
    10:00 +7°C° 0,1 mm 11 m/S 739 mmHg 75%
    11:00 +6°C° 0,1 mm 11 m/S 739 mmHg 71%
    12:00 +4°C° 0,1 mm 12 m/S 740 mmHg 67%
    13:00 +5°C° 0,1 mm 10 m/S 741 mmHg 68%
    14:00 +3°C° 0,1 mm 9 m/S 743 mmHg 70%
    15:00 +4°C° 0,1 mm 7 m/S 744 mmHg 71%
    16:00 +3°C° 0,2 mm 6 m/S 744 mmHg 75%
    17:00 +3°C° 0,2 mm 5 m/S 745 mmHg 78%
    18:00 +3°C° 0,2 mm 3 m/S 745 mmHg 82%
    19:00 +3°C° 0,8 mm 4 m/S 745 mmHg 82%
    20:00 +4°C° 0,8 mm 4 m/S 745 mmHg 83%
    21:00 +4°C° 0,8 mm 4 m/S 745 mmHg 84%
    22:00 +2°C° 0,3 mm 5 m/S 745 mmHg 84%
    23:00 +2°C° 0,3 mm 5 m/S 745 mmHg 83%

    Morgen, 19 Januar, Freitag

    Zeit Temperatur Niederschläge Wind Luftdruck Luftfeuchtigkeit
    00:00 +2°C° 0,3 mm 5 m/S 746 mmHg 83%
    01:00 +2°C° 0,2 mm 5 m/S 746 mmHg 83%
    02:00 +1°C° 0,2 mm 5 m/S 747 mmHg 84%
    03:00 +1°C° 0,2 mm 5 m/S 747 mmHg 84%
    04:00 +1°C° 0,1 mm 5 m/S 748 mmHg 85%
    05:00 +1°C° 0,1 mm 4 m/S 748 mmHg 85%
    06:00 +1°C° 0,1 mm 4 m/S 749 mmHg 85%
    07:00 +1°C° 0 mm 4 m/S 749 mmHg 85%
    08:00 +1°C° 0 mm 4 m/S 750 mmHg 84%
    09:00 +1°C° 0 mm 4 m/S 750 mmHg 83%
    10:00 +1°C° 0 mm 4 m/S 750 mmHg 80%
    11:00 +2°C° 0 mm 5 m/S 750 mmHg 76%
    12:00 +3°C° 0 mm 5 m/S 750 mmHg 72%
    13:00 +3°C° 0 mm 4 m/S 750 mmHg 72%
    14:00 +3°C° 0 mm 4 m/S 750 mmHg 73%
    15:00 +3°C° 0 mm 3 m/S 750 mmHg 73%
    16:00 +3°C° 0,1 mm 3 m/S 750 mmHg 76%
    17:00 +2°C° 0,1 mm 3 m/S 750 mmHg 78%
    18:00 +2°C° 0,1 mm 3 m/S 749 mmHg 81%
    19:00 +2°C° 0,2 mm 3 m/S 749 mmHg 81%
    20:00 +1°C° 0,2 mm 4 m/S 749 mmHg 82%
    21:00 +1°C° 0,2 mm 4 m/S 749 mmHg 82%
    22:00 0°C° 0,1 mm 4 m/S 750 mmHg 83%
    23:00 0°C° 0,1 mm 4 m/S 750 mmHg 83%

    übermorgen, 20 Januar, Samstag

    Zeit Temperatur Niederschläge Wind Luftdruck Luftfeuchtigkeit
    00:00 0°C° 0,1 mm 4 m/S 750 mmHg 83%
    01:00 -1°C° 0 mm 4 m/S 750 mmHg 83%
    02:00 -1°C° 0 mm 4 m/S 750 mmHg 83%
    03:00 -1°C° 0 mm 4 m/S 751 mmHg 83%
    04:00 -1°C° 0,1 mm 4 m/S 751 mmHg 83%
    05:00 -1°C° 0,1 mm 4 m/S 751 mmHg 82%
    06:00 -2°C° 0,1 mm 4 m/S 751 mmHg 81%
    07:00 -1°C° 0,1 mm 4 m/S 751 mmHg 81%
    08:00 -1°C° 0,1 mm 4 m/S 751 mmHg 81%
    09:00 -1°C° 0,1 mm 4 m/S 751 mmHg 80%
    10:00 0°C° 0,1 mm 4 m/S 751 mmHg 79%
    11:00 +1°C° 0,1 mm 4 m/S 750 mmHg 77%
    12:00 +1°C° 0,1 mm 4 m/S 750 mmHg 75%
    13:00 +1°C° 0 mm 4 m/S 750 mmHg 77%
    14:00 +2°C° 0 mm 3 m/S 750 mmHg 78%
    15:00 +2°C° 0 mm 3 m/S 750 mmHg 80%
    16:00 +2°C° 0 mm 2 m/S 751 mmHg 83%
    17:00 +1°C° 0 mm 2 m/S 751 mmHg 86%
    18:00 -1°C° 0 mm 2 m/S 752 mmHg 89%
    19:00 -1°C° 0 mm 2 m/S 752 mmHg 90%
    20:00 -1°C° 0 mm 2 m/S 753 mmHg 91%
    21:00 -1°C° 0 mm 3 m/S 754 mmHg 91%
    22:00 -1°C° 0 mm 3 m/S 754 mmHg 91%
    23:00 -1°C° 0 mm 3 m/S 755 mmHg 91%

    21 Januar, Sonntag

    Zeit Temperatur Niederschläge Wind Luftdruck Luftfeuchtigkeit
    00:00 -1°C° 0 mm 3 m/S 755 mmHg 92%
    01:00 -1°C° 0 mm 3 m/S 755 mmHg 92%
    02:00 -1°C° 0 mm 2 m/S 756 mmHg 92%
    03:00 -1°C° 0 mm 2 m/S 756 mmHg 92%
    04:00 -1°C° 0 mm 2 m/S 756 mmHg 91%
    05:00 -1°C° 0 mm 2 m/S 756 mmHg 91%
    06:00 -1°C° 0 mm 2 m/S 757 mmHg 90%
    07:00 +1°C° 0 mm 2 m/S 757 mmHg 88%
    08:00 +1°C° 0 mm 2 m/S 757 mmHg 86%
    09:00 +2°C° 0 mm 2 m/S 758 mmHg 84%
    10:00 +2°C° 0 mm 2 m/S 757 mmHg 82%
    11:00 +3°C° 0 mm 2 m/S 757 mmHg 80%
    12:00 +2°C° 0 mm 3 m/S 757 mmHg 78%
    13:00 +2°C° 0,7 mm 3 m/S 756 mmHg 80%
    14:00 +1°C° 0,7 mm 4 m/S 755 mmHg 83%
    15:00 0°C° 0,7 mm 4 m/S 755 mmHg 85%
    16:00 +1°C° 2 mm 4 m/S 754 mmHg 88%
    17:00 +1°C° 2 mm 4 m/S 753 mmHg 91%
    18:00 +1°C° 2 mm 4 m/S 753 mmHg 94%
    19:00 +3°C° 1 mm 4 m/S 753 mmHg 95%
    20:00 +3°C° 1 mm 4 m/S 753 mmHg 96%
    21:00 +4°C° 1 mm 3 m/S 753 mmHg 97%
    22:00 +5°C° 0,7 mm 3 m/S 753 mmHg 97%
    23:00 +5°C° 0,7 mm 4 m/S 753 mmHg 97%

    22 Januar, Montag

    Zeit Temperatur Niederschläge Wind Luftdruck Luftfeuchtigkeit
    00:00 +6°C° 0,7 mm 4 m/S 753 mmHg 98%
    01:00 +6°C° 0,2 mm 4 m/S 753 mmHg 98%
    02:00 +7°C° 0,2 mm 4 m/S 754 mmHg 98%
    03:00 +7°C° 0,2 mm 4 m/S 754 mmHg 98%
    04:00 +8°C° 0,1 mm 3 m/S 754 mmHg 98%
    05:00 +8°C° 0,1 mm 3 m/S 755 mmHg 98%
    06:00 +7°C° 0,1 mm 3 m/S 755 mmHg 98%
    07:00 +7°C° 0,1 mm 2 m/S 756 mmHg 98%
    08:00 +7°C° 0,1 mm 2 m/S 756 mmHg 98%
    09:00 +8°C° 0,1 mm 2 m/S 756 mmHg 98%
    10:00 +8°C° 0,4 mm 2 m/S 756 mmHg 97%
    11:00 +8°C° 0,4 mm 2 m/S 756 mmHg 97%
    12:00 +9°C° 0,4 mm 2 m/S 756 mmHg 97%
    13:00 +9°C° 0,5 mm 3 m/S 755 mmHg 96%
    14:00 +10°C° 0,5 mm 3 m/S 755 mmHg 95%
    15:00 +10°C° 0,5 mm 4 m/S 755 mmHg 94%
    16:00 +10°C° 0,2 mm 4 m/S 755 mmHg 94%
    17:00 +10°C° 0,2 mm 4 m/S 755 mmHg 93%
    18:00 +10°C° 0,2 mm 5 m/S 755 mmHg 92%
    19:00 +10°C° 0,4 mm 5 m/S 755 mmHg 92%
    20:00 +10°C° 0,4 mm 5 m/S 755 mmHg 91%
    21:00 +10°C° 0,4 mm 6 m/S 755 mmHg 90%
    22:00 +10°C° 0,1 mm 5 m/S 756 mmHg 90%
    23:00 +10°C° 0,1 mm 5 m/S 756 mmHg 90%

    23 Januar, Dienstag

    Zeit Temperatur Niederschläge Wind Luftdruck Luftfeuchtigkeit
    00:00 +10°C° 0,1 mm 5 m/S 756 mmHg 90%
    01:00 +9°C° 0,1 mm 5 m/S 756 mmHg 90%
    02:00 +9°C° 0,1 mm 5 m/S 757 mmHg 90%
    03:00 +9°C° 0,1 mm 5 m/S 757 mmHg 90%
    04:00 +10°C° 0,1 mm 4 m/S 757 mmHg 90%
    05:00 +10°C° 0,1 mm 4 m/S 758 mmHg 90%
    06:00 +10°C° 0,1 mm 4 m/S 758 mmHg 90%
    07:00 +10°C° 0,1 mm 4 m/S 759 mmHg 90%
    08:00 +10°C° 0,1 mm 4 m/S 759 mmHg 89%
    09:00 +11°C° 0,1 mm 4 m/S 760 mmHg 89%
    10:00 +10°C° 0 mm 5 m/S 760 mmHg 85%
    11:00 +12°C° 0 mm 5 m/S 761 mmHg 82%
    12:00 +12°C° 0 mm 5 m/S 761 mmHg 78%
    13:00 +12°C° 0 mm 5 m/S 761 mmHg 80%
    14:00 +12°C° 0 mm 4 m/S 762 mmHg 81%
    15:00 +12°C° 0 mm 3 m/S 762 mmHg 82%
    16:00 +11°C° 0 mm 3 m/S 762 mmHg 85%
    17:00 +11°C° 0 mm 3 m/S 763 mmHg 87%
    18:00 +10°C° 0 mm 3 m/S 763 mmHg 89%
    19:00 +10°C° 0 mm 3 m/S 763 mmHg 90%
    20:00 +10°C° 0 mm 2 m/S 764 mmHg 90%
    21:00 +10°C° 0 mm 2 m/S 764 mmHg 91%
    22:00 +10°C° 0 mm 2 m/S 764 mmHg 91%
    23:00 +10°C° 0 mm 3 m/S 764 mmHg 92%
    Mehr zeigen